Find Starlink 32792

NORAD ID: 62504 Int'l Des: 2025-003 Owner: SPXS Country: US Constellation: starlink operational
LEOCIRCULAR

当前视图

正在加载3D地球...

About Starlink 32792

Starlink 32792 (NORAD 62504) is a starlink constellation satellite (v2 mini) launched Jan 6, 2025 by SPXS of US. It operates in LEO, CIRCULAR orbit with a mass of 730.00 kg.

关于 Starlink 32792

正在加载描述...

即将过境

Passes for default location (London). Set your location on the main map for personalized predictions.

高度历史

Loading altitude history...

两行轨道根数

1 62504U 25003T 26161.19277397 .00016776 00000-0 61738-3 0 9993
2 62504 43.0008 126.1307 0000847 276.7990 83.2765 15.27599423 80706
Epoch: Jun 10, 2026 • Age: 9 hours

当前状态

高度 482.7 km
速度 7.63 km/s
星下点 1.30°N, 154.92°W
发射日期 Jan 6, 2025
运行时间 1.4 years
类型 internet

技术详情

分类 Payload
质量 730.00 kg
干质量 700.00 kg
总质量 730.00 kg
长度 0.30 m
直径 4.10 m
跨度 29.00 m
形状 Box + pan
制造商 SPXS
平台类型 Starlink V2M
阶段状态 In Orbit
所有者/国家 SPXS/US

Most Searched